CPA617 VHHH-VTBS

Flight info

Callsign CPA617
Flight time 2h 20m
Altitude 40000
Route PECAN V10 SIKOU/K0906S1220 A202 ASSAD/K0904F400 A202 VILAO/N0488F400 A202 RAMEI W42 PAKRI Y13 RUKSA EASTE1C
Aircraft A359/H-SDE2E3GHIJ1J3J4J5LM1ORWXY/LB1D1

Departure

Time 2026-05-04 14:33
Airport Hong Kong International Airport (VHHH)

Arrival

Time 2026-05-04 16:53
Airport Suvarnabhumi Airport (VTBS)
Time Latitude Longitude Altitude Speed Heading
2026-05-04 13:58 22.31469 113.92567 36 ft 0 kts 206°
2026-05-04 14:20 22.31478 113.92572 37 ft 4 kts 206°
2026-05-04 14:20 22.31502 113.92585 36 ft 4 kts 206°
2026-05-04 14:20 22.31522 113.92595 34 ft 3 kts 206°
2026-05-04 14:21 22.31547 113.92633 33 ft 3 kts 296°
2026-05-04 14:21 22.31536 113.92658 34 ft 4 kts 296°
2026-05-04 14:21 22.31532 113.92668 37 ft 0 kts 296°
2026-05-04 14:25 22.31535 113.92660 38 ft 3 kts 296°
2026-05-04 14:26 22.31550 113.92627 38 ft 7 kts 296°
2026-05-04 14:26 22.31576 113.92570 38 ft 10 kts 295°
2026-05-04 14:26 22.31607 113.92499 38 ft 12 kts 296°
2026-05-04 14:26 22.31641 113.92405 38 ft 14 kts 272°
2026-05-04 14:27 22.31617 113.92290 38 ft 17 kts 253°
2026-05-04 14:27 22.31574 113.92159 38 ft 20 kts 250°
2026-05-04 14:27 22.31526 113.92008 38 ft 23 kts 250°
2026-05-04 14:27 22.31471 113.91840 38 ft 25 kts 251°
2026-05-04 14:28 22.31415 113.91654 38 ft 27 kts 252°
2026-05-04 14:28 22.31354 113.91477 38 ft 22 kts 250°
2026-05-04 14:28 22.31300 113.91310 38 ft 25 kts 251°
2026-05-04 14:28 22.31241 113.91126 39 ft 27 kts 250°
2026-05-04 14:29 22.31109 113.90735 39 ft 31 kts 249°
2026-05-04 14:29 22.30989 113.90340 38 ft 34 kts 250°
2026-05-04 14:30 22.30909 113.90094 38 ft 35 kts 250°
2026-05-04 14:30 22.30858 113.89937 38 ft 20 kts 251°
2026-05-04 14:30 22.30908 113.89827 38 ft 10 kts 331°
2026-05-04 14:31 22.30983 113.89796 37 ft 14 kts 342°
2026-05-04 14:31 22.31098 113.89821 36 ft 8 kts 71°
2026-05-04 14:32 22.31111 113.89860 36 ft 0 kts 71°
2026-05-04 14:32 22.31114 113.89870 36 ft 8 kts 72°
2026-05-04 14:32 22.31213 113.90178 37 ft 82 kts 70°
2026-05-04 14:32 22.31478 113.91001 38 ft 148 kts 71°
2026-05-04 14:33 22.31863 113.92144 566 ft 164 kts 71°
2026-05-04 14:33 22.32247 113.93292 1396 ft 165 kts 72°
2026-05-04 14:33 22.32649 113.94562 1777 ft 194 kts 73°
2026-05-04 14:33 22.33071 113.96005 2376 ft 207 kts 74°
2026-05-04 14:34 22.33457 113.97502 3206 ft 210 kts 80°
2026-05-04 14:34 22.33739 113.99081 3886 ft 219 kts 82°
2026-05-04 14:34 22.34006 114.00731 4571 ft 229 kts 82°
2026-05-04 14:34 22.34277 114.02458 5249 ft 237 kts 83°
2026-05-04 14:35 22.34324 114.04236 6039 ft 239 kts 99°
2026-05-04 14:35 22.33817 114.05940 6821 ft 241 kts 121°
2026-05-04 14:35 22.32755 114.07326 7611 ft 242 kts 143°
2026-05-04 14:35 22.31295 114.08305 8178 ft 255 kts 161°
2026-05-04 14:36 22.29566 114.08759 8932 ft 258 kts 179°
2026-05-04 14:36 22.27764 114.08801 9706 ft 266 kts 185°
2026-05-04 14:36 22.25860 114.08754 10268 ft 282 kts 186°
2026-05-04 14:36 22.23824 114.08705 10663 ft 304 kts 185°
2026-05-04 14:37 22.21633 114.08667 11032 ft 326 kts 185°
2026-05-04 14:37 22.19305 114.08694 11418 ft 347 kts 179°
2026-05-04 14:37 22.16930 114.09401 11953 ft 366 kts 156°
2026-05-04 14:37 22.14905 114.11128 12609 ft 382 kts 133°
2026-05-04 14:38 22.13494 114.13580 13289 ft 391 kts 118°
2026-05-04 14:38 22.12301 114.16244 13957 ft 397 kts 118°
2026-05-04 14:38 22.11093 114.18933 14542 ft 402 kts 118°
2026-05-04 14:38 22.09846 114.21642 15126 ft 407 kts 119°
2026-05-04 14:39 22.08551 114.24363 15697 ft 410 kts 122°
2026-05-04 14:39 22.06836 114.26793 16243 ft 408 kts 140°
2026-05-04 14:39 22.04638 114.28707 16816 ft 408 kts 147°
2026-05-04 14:40 21.99943 114.32222 17904 ft 414 kts 155°
2026-05-04 14:40 21.97308 114.33399 18425 ft 410 kts 169°
2026-05-04 14:40 21.94514 114.33821 18899 ft 405 kts 184°
2026-05-04 14:40 21.91754 114.33481 19400 ft 399 kts 198°
2026-05-04 14:41 21.89183 114.32433 19907 ft 395 kts 212°
2026-05-04 14:41 21.86949 114.30760 20411 ft 391 kts 225°
2026-05-04 14:41 21.83878 114.26372 21343 ft 394 kts 239°
2026-05-04 14:42 21.80094 114.22056 22411 ft 404 kts 222°
2026-05-04 14:42 21.77890 114.20166 22941 ft 408 kts 221°
2026-05-04 14:42 21.75659 114.18275 23460 ft 411 kts 221°
2026-05-04 14:43 21.73410 114.16370 23908 ft 413 kts 221°
2026-05-04 14:43 21.71150 114.14454 24362 ft 415 kts 221°
2026-05-04 14:43 21.68881 114.12529 24866 ft 417 kts 221°
2026-05-04 14:43 21.66562 114.10643 25362 ft 421 kts 218°
2026-05-04 14:44 21.64012 114.09071 25881 ft 428 kts 209°
2026-05-04 14:44 21.61196 114.07972 26404 ft 436 kts 200°
2026-05-04 14:44 21.58245 114.07171 26901 ft 440 kts 198°
2026-05-04 14:44 21.55262 114.06414 27403 ft 443 kts 198°
2026-05-04 14:45 21.52256 114.05648 27863 ft 447 kts 198°
2026-05-04 14:45 21.49230 114.04872 28360 ft 449 kts 198°
2026-05-04 14:45 21.46199 114.04047 28840 ft 450 kts 201°
2026-05-04 14:45 21.43288 114.02857 29303 ft 447 kts 210°
2026-05-04 14:46 21.40591 114.01228 29770 ft 446 kts 216°
2026-05-04 14:46 21.37967 113.99446 30205 ft 448 kts 217°
2026-05-04 14:46 21.35363 113.97599 30581 ft 451 kts 218°
2026-05-04 14:46 21.32757 113.95721 30947 ft 454 kts 218°
2026-05-04 14:47 21.30136 113.93831 31294 ft 456 kts 218°
2026-05-04 14:47 21.27493 113.91933 31584 ft 460 kts 217°
2026-05-04 14:47 21.24825 113.90031 31927 ft 463 kts 217°
2026-05-04 14:47 21.22131 113.88122 32259 ft 465 kts 217°
2026-05-04 14:48 21.19429 113.86214 32586 ft 467 kts 217°
2026-05-04 14:48 21.16719 113.84304 32904 ft 469 kts 218°
2026-05-04 14:48 21.14026 113.82335 33207 ft 469 kts 221°
2026-05-04 14:48 21.11562 113.80079 33637 ft 463 kts 228°
2026-05-04 14:49 21.09443 113.77532 34105 ft 457 kts 236°
2026-05-04 14:49 21.07705 113.74713 34453 ft 453 kts 243°
2026-05-04 14:49 21.06383 113.71673 34777 ft 451 kts 250°
2026-05-04 14:49 21.05283 113.68540 35110 ft 450 kts 251°
2026-05-04 14:50 21.04252 113.65384 35425 ft 450 kts 252°
2026-05-04 14:50 21.03249 113.62219 35721 ft 450 kts 253°
2026-05-04 14:50 21.02252 113.59055 36043 ft 450 kts 253°
2026-05-04 14:50 21.01249 113.55889 36379 ft 449 kts 252°
2026-05-04 14:51 21.00241 113.52737 36704 ft 449 kts 252°
2026-05-04 14:51 20.99229 113.49595 37026 ft 448 kts 252°
2026-05-04 14:51 20.98210 113.46451 37350 ft 447 kts 252°
2026-05-04 14:51 20.97191 113.43317 37661 ft 447 kts 252°
2026-05-04 14:52 20.96169 113.40180 37940 ft 447 kts 252°
2026-05-04 14:52 20.95147 113.37046 38213 ft 447 kts 252°
2026-05-04 14:52 20.94126 113.33916 38510 ft 446 kts 252°
2026-05-04 14:52 20.93105 113.30790 38783 ft 446 kts 252°
2026-05-04 14:53 20.92087 113.27674 38996 ft 446 kts 252°
2026-05-04 14:53 20.91066 113.24549 39202 ft 446 kts 252°
2026-05-04 14:53 20.90045 113.21424 39394 ft 446 kts 252°
2026-05-04 14:53 20.89023 113.18297 39589 ft 446 kts 252°
2026-05-04 14:54 20.87999 113.15169 39774 ft 447 kts 252°
2026-05-04 14:54 20.86974 113.12040 39944 ft 447 kts 252°
2026-05-04 14:54 20.85948 113.08908 40110 ft 448 kts 252°
2026-05-04 14:54 20.84917 113.05769 40138 ft 449 kts 252°
2026-05-04 14:55 20.82856 112.99493 40118 ft 448 kts 252°
2026-05-04 14:55 20.80793 112.93219 40135 ft 448 kts 252°
2026-05-04 14:56 20.78728 112.86947 40136 ft 448 kts 252°
2026-05-04 14:56 20.76661 112.80677 40141 ft 448 kts 252°
2026-05-04 14:57 20.74590 112.74406 40138 ft 449 kts 252°
2026-05-04 14:57 20.72516 112.68134 40143 ft 449 kts 252°
2026-05-04 14:58 20.70437 112.61855 40137 ft 449 kts 252°
2026-05-04 14:58 20.68354 112.55574 40138 ft 449 kts 252°
2026-05-04 14:59 20.66270 112.49299 40136 ft 449 kts 252°
2026-05-04 15:00 20.63142 112.39891 40139 ft 450 kts 252°
2026-05-04 15:00 20.61048 112.33608 40139 ft 450 kts 252°
2026-05-04 15:01 20.57912 112.24182 40136 ft 450 kts 253°
2026-05-04 15:01 20.56704 112.17686 40142 ft 447 kts 268°
2026-05-04 15:02 20.57272 112.11121 40137 ft 447 kts 283°
2026-05-04 15:02 20.59524 112.04940 40144 ft 449 kts 293°
2026-05-04 15:03 20.62241 111.98941 40142 ft 450 kts 294°
2026-05-04 15:03 20.64998 111.92961 40143 ft 450 kts 294°
2026-05-04 15:04 20.67729 111.86962 40143 ft 450 kts 294°
2026-05-04 15:04 20.70438 111.80951 40145 ft 450 kts 294°
2026-05-04 15:05 20.73141 111.74937 40149 ft 450 kts 294°
2026-05-04 15:05 20.75843 111.68920 40146 ft 450 kts 294°
2026-05-04 15:06 20.78542 111.62904 40145 ft 450 kts 294°
2026-05-04 15:07 20.82060 111.53671 40152 ft 448 kts 282°
2026-05-04 15:07 20.82556 111.47086 40154 ft 447 kts 266°
2026-05-04 15:08 20.81217 111.40604 40148 ft 450 kts 253°
2026-05-04 15:08 20.79137 111.34300 40147 ft 452 kts 252°
2026-05-04 15:09 20.76964 111.28006 40147 ft 452 kts 252°
2026-05-04 15:09 20.74817 111.21719 40149 ft 452 kts 252°
2026-05-04 15:10 20.71628 111.12268 40150 ft 452 kts 252°
2026-05-04 15:11 20.68443 111.02824 40145 ft 451 kts 252°
2026-05-04 15:11 20.66315 110.96529 40147 ft 451 kts 252°
2026-05-04 15:12 20.64187 110.90245 40142 ft 451 kts 252°
2026-05-04 15:12 20.62065 110.83952 40145 ft 451 kts 252°
2026-05-04 15:13 20.59957 110.77654 40149 ft 451 kts 252°
2026-05-04 15:13 20.57843 110.71356 40147 ft 452 kts 252°
2026-05-04 15:14 20.55726 110.65065 40145 ft 452 kts 252°
2026-05-04 15:14 20.53603 110.58771 40149 ft 452 kts 252°
2026-05-04 15:15 20.51437 110.52492 40162 ft 452 kts 249°
2026-05-04 15:15 20.48269 110.46692 40144 ft 458 kts 236°
2026-05-04 15:16 20.42308 110.38717 40142 ft 460 kts 234°
2026-05-04 15:17 20.36212 110.30829 40147 ft 460 kts 234°
2026-05-04 15:17 20.30145 110.22921 40143 ft 460 kts 234°
2026-05-04 15:18 20.26138 110.17626 40130 ft 460 kts 235°
2026-05-04 15:19 20.20186 110.09639 40142 ft 459 kts 235°
2026-05-04 15:19 20.14227 110.01685 40147 ft 459 kts 235°
2026-05-04 15:20 20.10248 109.96390 40146 ft 459 kts 235°
2026-05-04 15:20 20.06268 109.91100 40131 ft 459 kts 235°
2026-05-04 15:21 20.02285 109.85810 40150 ft 459 kts 234°
2026-05-04 15:22 19.96307 109.77878 40143 ft 459 kts 234°
2026-05-04 15:22 19.90321 109.69948 40143 ft 460 kts 234°
2026-05-04 15:23 19.86332 109.64669 40135 ft 460 kts 234°
2026-05-04 15:23 19.82336 109.59385 40135 ft 460 kts 234°
2026-05-04 15:24 19.74342 109.48828 40135 ft 460 kts 234°
2026-05-04 15:25 19.70339 109.43551 40128 ft 460 kts 234°
2026-05-04 15:26 19.64324 109.35627 40131 ft 461 kts 234°
2026-05-04 15:26 19.58308 109.27712 40127 ft 461 kts 234°
2026-05-04 15:27 19.52284 109.19798 40127 ft 461 kts 234°
2026-05-04 15:28 19.46229 109.11916 40120 ft 461 kts 234°
2026-05-04 15:29 19.40147 109.04045 40125 ft 461 kts 233°
2026-05-04 15:30 19.25956 108.85690 40121 ft 461 kts 233°
2026-05-04 15:31 19.19869 108.77844 40115 ft 461 kts 233°
2026-05-04 15:32 19.09726 108.64754 40115 ft 461 kts 233°
2026-05-04 15:34 18.99565 108.51686 40114 ft 461 kts 233°
2026-05-04 15:34 18.93463 108.43851 40109 ft 461 kts 233°
2026-05-04 15:35 18.87358 108.36020 40116 ft 462 kts 233°
2026-05-04 15:36 18.81236 108.28179 40115 ft 463 kts 232°
2026-05-04 15:36 18.77147 108.22948 40115 ft 463 kts 232°
2026-05-04 15:37 18.73056 108.17718 40118 ft 463 kts 232°
2026-05-04 15:37 18.68968 108.12497 40121 ft 463 kts 232°
2026-05-04 15:38 18.64873 108.07270 40121 ft 463 kts 232°
2026-05-04 15:38 18.60778 108.02048 40123 ft 463 kts 232°
2026-05-04 15:39 18.56681 107.96829 40114 ft 463 kts 233°
2026-05-04 15:40 18.50508 107.88970 40120 ft 466 kts 233°
2026-05-04 15:40 18.46378 107.83720 40123 ft 466 kts 232°
2026-05-04 15:41 18.42246 107.78471 40123 ft 466 kts 232°
2026-05-04 15:41 18.38113 107.73225 40124 ft 466 kts 232°
2026-05-04 15:42 18.34073 107.67911 40123 ft 464 kts 238°
2026-05-04 15:42 18.30531 107.62254 40123 ft 464 kts 239°
2026-05-04 15:43 18.27080 107.56541 40120 ft 464 kts 240°
2026-05-04 15:43 18.23639 107.50820 40123 ft 464 kts 240°
2026-05-04 15:44 18.20187 107.45105 40124 ft 464 kts 239°
2026-05-04 15:44 18.16728 107.39393 40025 ft 464 kts 239°
2026-05-04 15:45 18.13270 107.33692 40022 ft 463 kts 239°
2026-05-04 15:45 18.09815 107.28002 40023 ft 463 kts 239°
2026-05-04 15:46 18.06358 107.22315 40023 ft 463 kts 239°
2026-05-04 15:46 18.02895 107.16633 40024 ft 463 kts 239°
2026-05-04 15:47 17.99434 107.10951 40022 ft 463 kts 239°
2026-05-04 15:47 17.95975 107.05279 40023 ft 463 kts 239°
2026-05-04 15:48 17.92511 106.99605 40020 ft 462 kts 239°
2026-05-04 15:48 17.87314 106.91103 40019 ft 462 kts 239°
2026-05-04 15:49 17.83864 106.85429 40022 ft 462 kts 239°
2026-05-04 15:49 17.80420 106.79753 40021 ft 462 kts 239°
2026-05-04 15:50 17.76968 106.74075 40023 ft 462 kts 239°
2026-05-04 15:50 17.73520 106.68413 40019 ft 462 kts 239°
2026-05-04 15:51 17.70066 106.62748 40024 ft 462 kts 239°
2026-05-04 15:51 17.66604 106.57083 40023 ft 462 kts 239°
2026-05-04 15:52 17.63136 106.51426 40038 ft 462 kts 239°
2026-05-04 15:52 17.59667 106.45770 40028 ft 462 kts 239°
2026-05-04 15:53 17.56200 106.40122 40029 ft 462 kts 239°
2026-05-04 15:53 17.52725 106.34467 40043 ft 462 kts 239°
2026-05-04 15:54 17.49251 106.28816 40038 ft 463 kts 239°
2026-05-04 15:54 17.45773 106.23166 40031 ft 463 kts 239°
2026-05-04 15:55 17.42288 106.17510 40035 ft 463 kts 239°
2026-05-04 15:55 17.38798 106.11851 40043 ft 464 kts 239°
2026-05-04 15:56 17.35301 106.06181 40021 ft 465 kts 239°
2026-05-04 15:56 17.31849 106.00483 40024 ft 464 kts 239°
2026-05-04 15:57 17.28408 105.94769 40025 ft 465 kts 239°
2026-05-04 15:57 17.24950 105.89050 40008 ft 466 kts 239°
2026-05-04 15:58 17.21482 105.83333 39993 ft 466 kts 239°
2026-05-04 15:58 17.18011 105.77619 39966 ft 466 kts 239°
2026-05-04 15:59 17.14539 105.71908 39966 ft 466 kts 239°
2026-05-04 15:59 17.11070 105.66204 39962 ft 467 kts 239°
2026-05-04 16:00 17.07589 105.60485 39958 ft 467 kts 239°
2026-05-04 16:00 17.04113 105.54781 39959 ft 466 kts 239°
2026-05-04 16:01 17.00636 105.49081 39950 ft 466 kts 239°
2026-05-04 16:01 16.97158 105.43381 39951 ft 466 kts 239°
2026-05-04 16:02 16.93679 105.37685 39950 ft 466 kts 239°
2026-05-04 16:03 16.88457 105.29146 39947 ft 466 kts 239°
2026-05-04 16:03 16.84975 105.23458 39948 ft 466 kts 239°
2026-05-04 16:04 16.81489 105.17782 39939 ft 466 kts 239°
2026-05-04 16:04 16.76245 105.09241 39945 ft 467 kts 239°
2026-05-04 16:05 16.72743 105.03546 39944 ft 467 kts 239°
2026-05-04 16:06 16.67485 104.95003 39948 ft 467 kts 239°
2026-05-04 16:07 16.60479 104.83639 39952 ft 466 kts 239°
2026-05-04 16:08 16.53279 104.73288 39947 ft 468 kts 231°
2026-05-04 16:09 16.42453 104.60686 39950 ft 467 kts 230°
2026-05-04 16:10 16.33791 104.50634 39944 ft 467 kts 230°
2026-05-04 16:11 16.25132 104.40587 39945 ft 467 kts 230°
2026-05-04 16:12 16.12007 104.25611 39939 ft 469 kts 230°
2026-05-04 16:13 16.03249 104.15605 39944 ft 469 kts 230°
2026-05-04 16:14 15.94598 104.05475 39943 ft 469 kts 231°
2026-05-04 16:16 15.83773 103.92859 39944 ft 468 kts 230°
2026-05-04 16:17 15.72978 103.80314 39936 ft 466 kts 230°
2026-05-04 16:18 15.64373 103.70327 39939 ft 465 kts 230°
2026-05-04 16:19 15.53603 103.57849 39936 ft 465 kts 230°
2026-05-04 16:20 15.42831 103.45389 39939 ft 465 kts 230°
2026-05-04 16:22 15.32062 103.32954 39936 ft 465 kts 230°
2026-05-04 16:23 15.19107 103.18020 39938 ft 470 kts 230°
2026-05-04 16:25 15.05967 103.02985 39937 ft 471 kts 226°
2026-05-04 16:26 14.95077 102.95318 39941 ft 477 kts 213°
2026-05-04 16:26 14.87547 102.88855 39941 ft 469 kts 234°
2026-05-04 16:27 14.84478 102.82995 39944 ft 465 kts 252°
2026-05-04 16:28 14.81551 102.73472 39944 ft 465 kts 253°
2026-05-04 16:29 14.74732 102.51203 39947 ft 465 kts 253°
2026-05-04 16:31 14.69819 102.35305 39899 ft 468 kts 253°
2026-05-04 16:31 14.66906 102.25846 38764 ft 458 kts 253°
2026-05-04 16:32 14.63978 102.16391 36174 ft 470 kts 253°
2026-05-04 16:33 14.61966 102.09894 34228 ft 482 kts 252°
2026-05-04 16:33 14.59906 102.03196 31940 ft 496 kts 253°
2026-05-04 16:34 14.57791 101.96390 29994 ft 501 kts 252°
2026-05-04 16:34 14.56716 101.92973 28905 ft 502 kts 252°
2026-05-04 16:35 14.52989 101.83241 25206 ft 468 kts 247°
2026-05-04 16:35 14.49345 101.74346 23264 ft 444 kts 248°
2026-05-04 16:36 14.48164 101.71421 22556 ft 441 kts 248°
2026-05-04 16:36 14.45843 101.65651 21212 ft 432 kts 248°
2026-05-04 16:37 14.43565 101.59980 19891 ft 426 kts 248°
2026-05-04 16:37 14.42437 101.57174 19224 ft 423 kts 248°
2026-05-04 16:37 14.40842 101.53203 18251 ft 420 kts 248°
2026-05-04 16:38 14.38643 101.47734 16822 ft 414 kts 247°
2026-05-04 16:39 14.35377 101.39617 14757 ft 405 kts 247°
2026-05-04 16:39 14.33235 101.34298 13361 ft 400 kts 247°
2026-05-04 16:40 14.31097 101.29084 11989 ft 390 kts 243°
2026-05-04 16:40 14.28381 101.24506 11582 ft 357 kts 236°
2026-05-04 16:41 14.25812 101.20413 11330 ft 325 kts 236°
2026-05-04 16:41 14.22366 101.14912 10946 ft 287 kts 236°
2026-05-04 16:42 14.19161 101.09802 9973 ft 281 kts 236°
2026-05-04 16:43 14.16971 101.06311 9540 ft 298 kts 236°
2026-05-04 16:43 14.14738 101.02751 8597 ft 297 kts 236°
2026-05-04 16:43 14.13624 101.00977 8185 ft 294 kts 236°
2026-05-04 16:44 14.09261 100.94025 6806 ft 286 kts 236°
2026-05-04 16:45 14.07120 100.90616 6110 ft 282 kts 236°
2026-05-04 16:46 14.04084 100.85779 5594 ft 251 kts 235°
2026-05-04 16:46 14.02054 100.82966 5124 ft 242 kts 216°
2026-05-04 16:47 13.98956 100.81833 4581 ft 238 kts 191°
2026-05-04 16:47 13.95761 100.81034 4041 ft 235 kts 192°
2026-05-04 16:48 13.91118 100.79821 3449 ft 218 kts 193°
2026-05-04 16:48 13.89684 100.79436 3323 ft 208 kts 193°
2026-05-04 16:49 13.87003 100.78715 3061 ft 192 kts 193°
2026-05-04 16:49 13.84456 100.78041 2676 ft 187 kts 193°
2026-05-04 16:50 13.81963 100.77381 2283 ft 180 kts 193°
2026-05-04 16:50 13.79658 100.76771 1878 ft 165 kts 193°
2026-05-04 16:51 13.77562 100.76215 1453 ft 144 kts 193°
2026-05-04 16:51 13.76629 100.75970 1290 ft 134 kts 193°
2026-05-04 16:51 13.74849 100.75500 961 ft 132 kts 192°
2026-05-04 16:52 13.73049 100.75016 594 ft 137 kts 188°
2026-05-04 16:52 13.72138 100.74757 419 ft 135 kts 176°
2026-05-04 16:53 13.70282 100.74281 68 ft 139 kts 179°
2026-05-04 16:53 13.68471 100.73836 23 ft 40 kts 179°
2026-05-04 16:54 13.68253 100.73871 23 ft 16 kts 151°
2026-05-04 16:55 13.68454 100.74005 23 ft 14 kts 14°
2026-05-04 16:55 13.68663 100.74061 22 ft 17 kts 14°
2026-05-04 16:56 13.68913 100.74126 23 ft 20 kts 14°
2026-05-04 16:56 13.69374 100.74248 21 ft 26 kts 15°
2026-05-04 16:57 13.69476 100.74293 23 ft 11 kts 58°
2026-05-04 16:57 13.69458 100.74465 21 ft 14 kts 103°
2026-05-04 16:58 13.69449 100.74635 22 ft 0 kts 102°
2026-05-04 16:58 13.69449 100.74636 22 ft 0 kts 103°
2026-05-04 16:59 13.69446 100.74646 22 ft 1 kts 105°
2026-05-04 17:00 13.69444 100.74654 20 ft 1 kts 104°